[[{"header":{"parameterUnit":"m.s-1","parameterCategory":1,"la1":30.2991,"la2":30.254,"lo1":-89.0895,"lo2":-89.0444,"dy":0.0017,"dx":0.0017,"nx":28,"ny":28,"refTime":"2024-08-10T03:00:00:Z","depth":0,"parameterNumber":2,"parameterNumberName":"U-component_of_WINDS"},"data":[0,0,0,0,0,0,0,0,0,0,0,0,0,0,0,0,0,0,0,0,0,0,0,0,0,0,0,0,0,0,0,0,0,0,0,0,0,0,0,0,0,0,0,0,0,0,0,0,0,0,0,0,0,0,0,0,0,0,1.2432,1.2435,0,1.2635,1.2637,1.2639,1.2645,1.2642,1.264,1.2637,1.2851,1.2859,1.2867,0,0,0,0,0,0,0,0,0,0,0,0,0,1.206,1.2066,1.2432,1.2435,1.2437,1.2634,1.2637,1.264,1.2645,1.2642,1.2639,1.2636,1.2849,1.2858,1.2868,0,0,0,0,0,0,0,0,0,0,0,0,0,1.2238,1.2069,1.2432,1.2463,1.2468,1.2634,1.2637,1.264,1.2646,1.2642,1.2638,1.2635,1.2846,1.2857,1.2869,1.3019,0,0,1.2906,1.2911,0,0,0,0,0,0,0,0,1.2228,1.2251,1.2456,1.2462,1.2467,1.261,1.2584,1.2768,1.2647,1.2579,1.2637,1.2633,1.2775,1.2792,1.2839,1.3029,1.3038,1.2907,1.2914,1.292,1.2923,0,0,0,0,0,0,0,1.2215,1.2243,1.2512,1.2459,1.2466,1.2471,1.2492,1.2619,1.2696,1.2584,1.2585,1.2609,1.2777,1.2827,1.2844,1.3041,1.2907,1.2918,1.2925,1.293,1.3368,1.3373,0,0,0,0,0,0,1.2196,1.2232,1.2506,1.2518,1.2336,1.248,1.2504,1.2568,1.2694,1.2709,1.2612,1.2608,1.2808,1.283,1.2851,1.3037,1.292,1.2931,1.2938,1.3364,1.3369,1.3374,0,0,0,0,0,0,1.2187,1.222,1.2498,1.2376,1.2412,1.2491,1.2563,1.2574,1.2624,1.2715,1.2729,1.2648,1.2806,1.2834,1.2978,1.3045,1.2936,1.2947,1.3359,1.3366,1.3372,1.3409,0,0,0,0,0,0,1.2177,1.2217,1.2272,1.2377,1.2418,1.2618,1.2567,1.2581,1.2644,1.2642,1.2753,1.2768,1.2806,1.296,1.299,1.3059,1.2957,1.3353,1.3362,1.337,1.3402,1.3416,1.3428,0,0,0,0,0,1.2163,1.2275,1.2275,1.2308,1.2488,1.2622,1.2645,1.2685,1.2649,1.2708,1.2766,1.2764,1.3032,1.2974,1.3008,1.3082,1.3349,1.3359,1.3369,1.3396,1.3413,1.3427,0,0,0,0,0,0,1.2177,1.2289,1.229,1.2438,1.252,1.2622,1.2696,1.2701,1.2796,1.279,1.2837,1.2862,1.3005,1.3058,1.2991,1.3236,1.3187,1.3204,1.3196,1.3213,1.3225,1.3211,1.2967,0,0,0,0,0,1.2197,1.2294,1.2387,1.2509,1.255,1.2616,1.2676,1.2699,1.2787,1.2822,1.2891,1.2978,1.3083,1.3151,1.3251,1.3409,1.3436,1.3478,1.3491,1.3501,1.3516,1.3607,1.3628,1.3407,1.3407,1.3407,0,0,1.224,1.2313,1.2372,1.2514,1.258,1.2682,1.2645,1.2754,1.2831,1.2839,1.2979,1.3033,1.3134,1.3286,1.3356,1.3334,1.3583,1.3513,1.3521,1.3531,1.3619,1.364,1.3659,1.3414,1.3413,1.3411,0,0,1.2371,1.2434,1.2545,1.2612,1.2712,1.2756,1.2783,1.2885,1.2921,1.3061,1.307,1.3164,1.3342,1.3414,1.3474,1.3636,1.364,1.3668,1.3736,1.3825,1.3842,1.3858,1.3918,1.3939,1.3682,1.3682,1.3683,0,1.2412,1.2564,1.2601,1.2711,1.2775,1.2786,1.29,1.2964,1.3093,1.3139,1.3112,1.3337,1.3406,1.3577,1.3617,1.3664,1.3699,1.3656,1.3836,1.3852,1.3868,1.3926,1.3948,1.3685,1.3685,1.3685,1.3684,0,1.2611,1.2717,1.2794,1.2917,1.299,1.3101,1.3159,1.3229,1.3247,1.3294,1.344,1.3522,1.3642,1.3684,1.3703,1.3859,1.3843,1.3825,1.3778,1.3891,1.3947,1.3969,1.369,1.3689,1.3688,1.3687,0,0,1.2755,1.2899,1.2927,1.2985,1.3098,1.3182,1.3295,1.341,1.3471,1.3561,1.366,1.3811,1.3797,1.3865,1.3893,1.397,1.4097,1.3944,1.3947,1.3972,1.4279,1.4292,1.4317,1.4099,1.4104,1.4107,1.4271,0,1.29,1.3099,1.3138,1.3313,1.3413,1.3427,1.3526,1.3608,1.3657,1.3751,1.3806,1.3913,1.3884,1.3926,1.4003,1.4065,1.416,1.4054,1.4195,1.42,1.4171,1.4346,1.436,1.451,1.4293,1.4296,1.4299,0,1.3095,1.3188,1.3373,1.3476,1.3519,1.3607,1.3718,1.3807,1.3902,1.3932,1.401,1.403,1.4152,1.4098,1.4269,1.4197,1.4257,1.4297,1.4304,1.432,1.4257,1.4369,1.4559,1.4582,1.4333,1.4331,1.4328,0,1.3185,1.3357,1.349,1.3539,1.3661,1.3724,1.3779,1.387,1.3937,1.4035,1.408,1.4191,1.4253,1.434,1.4391,1.4346,1.456,1.4509,1.4592,1.4591,1.4637,1.4634,1.4841,1.4673,1.4673,1.4672,1.4672,0,1.3343,1.3456,1.3533,1.3615,1.3744,1.3789,1.3916,1.397,1.4052,1.4147,1.4166,1.4256,1.4317,1.4417,1.4457,1.4595,1.4623,1.4653,1.4663,1.4652,1.4649,1.4694,1.4685,1.4678,1.4677,1.4676,1.4675,0,1.3465,1.352,1.3667,1.3772,1.3801,1.3891,1.3982,1.4065,1.4113,1.4235,1.4266,1.4344,1.4463,1.4522,1.467,1.4697,1.4854,1.4857,1.4822,1.4826,1.4906,1.4898,1.5151,1.5188,1.4993,1.4995,1.4996,0,1.3563,1.365,1.3764,1.3829,1.3884,1.3988,1.4058,1.4107,1.4179,1.4296,1.4365,1.4485,1.4583,1.4772,1.4844,1.4959,1.4965,1.5046,1.4983,1.4971,1.497,1.4964,1.4975,1.5058,1.506,1.5061,1.5062,0,1.3732,1.3756,1.3854,1.3963,1.4045,1.4134,1.4221,1.4274,1.4338,1.4419,1.454,1.4616,1.4767,1.4887,1.5007,1.5067,1.5077,1.5082,1.5107,1.5098,1.5075,1.5091,1.4855,1.5076,1.5075,1.5074,1.5073,1.5072,1.3847,1.3926,1.402,1.413,1.4201,1.4283,1.4366,1.4426,1.4527,1.4652,1.4676,1.4806,1.4903,1.5065,1.5128,1.5232,1.5215,1.5251,1.5261,1.527,1.5275,1.5057,1.5254,1.5254,1.5254,1.5253,1.5253,0,1.4019,1.408,1.4181,1.4302,1.439,1.439,1.4488,1.4562,1.4675,1.4763,1.486,1.5001,1.5118,1.5199,1.5319,1.5387,1.5395,1.5417,1.5413,1.5428,1.5282,1.5249,1.5409,1.5409,1.5408,1.5408,1.5408,1.5408,1.4119,1.4254,1.429,1.4462,1.4524,1.4649,1.4705,1.4783,1.4854,1.501,1.5106,1.5158,1.5246,1.5372,1.5481,1.5502,1.5546,1.5569,1.5591,1.5454,1.5437,1.5422,1.5391,1.5578,1.5578,1.5728,1.5729,1.573]},{"header":{"parameterUnit":"m.s-1","parameterCategory":1,"la1":30.2991,"la2":30.254,"lo1":-89.0895,"lo2":-89.0444,"dy":0.0017,"dx":0.0017,"nx":28,"ny":28,"refTime":"2024-08-10T03:00:00:Z","depth":0,"parameterNumber":3,"parameterNumberName":"V-component_of_WINDS"},"data":[0,0,0,0,0,0,0,0,0,0,0,0,0,0,0,0,0,0,0,0,0,0,0,0,0,0,0,0,0,0,0,0,0,0,0,0,0,0,0,0,0,0,0,0,0,0,0,0,0,0,0,0,0,0,0,0,0,0,-1.1646,-1.1644,0,-1.146,-1.1458,-1.1456,-1.1442,-1.1444,-1.1447,-1.1448,-1.1252,-1.1245,-1.1238,0,0,0,0,0,0,0,0,0,0,0,0,0,-1.1981,-1.1975,-1.1646,-1.1644,-1.1641,-1.1461,-1.1458,-1.1455,-1.1442,-1.1445,-1.1447,-1.1449,-1.1254,-1.1246,-1.1237,0,0,0,0,0,0,0,0,0,0,0,0,0,-1.1819,-1.1973,-1.1646,-1.1613,-1.1608,-1.1461,-1.1458,-1.1455,-1.1441,-1.1445,-1.1448,-1.1451,-1.1257,-1.1246,-1.1236,-1.1107,0,0,-1.1203,-1.1198,0,0,0,0,0,0,0,0,-1.1829,-1.1807,-1.162,-1.1615,-1.1609,-1.1478,-1.1504,-1.1338,-1.1441,-1.1504,-1.1449,-1.1452,-1.1324,-1.1308,-1.1266,-1.1098,-1.109,-1.1202,-1.1196,-1.1191,-1.1188,0,0,0,0,0,0,0,-1.184,-1.1815,-1.1572,-1.1617,-1.1611,-1.1605,-1.1585,-1.1473,-1.1399,-1.1499,-1.1498,-1.1476,-1.1322,-1.1277,-1.1261,-1.1087,-1.1202,-1.1193,-1.1186,-1.1182,-1.0802,-1.0798,0,0,0,0,0,0,-1.1858,-1.1824,-1.1578,-1.1567,-1.1729,-1.1596,-1.1574,-1.1517,-1.14,-1.1385,-1.1474,-1.1476,-1.1293,-1.1274,-1.1254,-1.1094,-1.1191,-1.1181,-1.1175,-1.0805,-1.0801,-1.0797,0,0,0,0,0,0,-1.1866,-1.1837,-1.1586,-1.1695,-1.1663,-1.1587,-1.1522,-1.1511,-1.1466,-1.1381,-1.1367,-1.1442,-1.1295,-1.127,-1.1144,-1.1087,-1.1176,-1.1166,-1.081,-1.0804,-1.0799,-1.0774,0,0,0,0,0,0,-1.1875,-1.1839,-1.1791,-1.1694,-1.1657,-1.148,-1.1519,-1.1506,-1.1449,-1.145,-1.1347,-1.1333,-1.1295,-1.116,-1.1133,-1.1074,-1.1158,-1.0814,-1.0807,-1.0801,-1.0779,-1.0768,-1.0759,0,0,0,0,0,-1.1887,-1.1791,-1.1789,-1.1759,-1.1596,-1.1477,-1.1455,-1.1416,-1.1444,-1.1394,-1.1339,-1.1336,-1.1099,-1.1147,-1.1117,-1.1054,-1.0818,-1.0809,-1.0801,-1.0784,-1.077,-1.0759,0,0,0,0,0,0,-1.188,-1.1777,-1.1774,-1.1644,-1.157,-1.1475,-1.141,-1.1403,-1.1317,-1.1322,-1.1275,-1.1252,-1.1127,-1.1078,-1.1134,-1.0922,-1.0961,-1.0946,-1.0958,-1.0944,-1.0934,-1.0947,-1.1149,0,0,0,0,0,-1.1864,-1.1779,-1.1692,-1.1585,-1.1549,-1.1486,-1.1433,-1.1409,-1.1329,-1.1297,-1.1233,-1.1154,-1.1061,-1.1001,-1.0911,-1.0774,-1.0749,-1.0715,-1.0705,-1.0696,-1.0683,-1.0604,-1.0587,-1.077,-1.077,-1.077,0,0,-1.1829,-1.1762,-1.171,-1.1582,-1.1522,-1.1431,-1.1459,-1.1363,-1.1295,-1.1282,-1.1159,-1.1109,-1.1018,-1.0885,-1.0824,-1.0841,-1.0628,-1.0686,-1.068,-1.0671,-1.0594,-1.0577,-1.0561,-1.0764,-1.0765,-1.0766,0,0,-1.1717,-1.166,-1.1563,-1.1502,-1.1412,-1.1371,-1.1348,-1.1254,-1.1221,-1.1098,-1.1086,-1.1003,-1.0845,-1.078,-1.0726,-1.059,-1.0583,-1.0562,-1.0507,-1.0431,-1.0416,-1.0403,-1.0352,-1.0334,-1.055,-1.055,-1.055,0,-1.1683,-1.1549,-1.1513,-1.1417,-1.136,-1.1347,-1.1247,-1.1189,-1.1073,-1.1032,-1.1054,-1.0855,-1.0792,-1.0643,-1.061,-1.0568,-1.0538,-1.0572,-1.0422,-1.0408,-1.0395,-1.0346,-1.0327,-1.0548,-1.0548,-1.0548,-1.0549,0,-1.1511,-1.1418,-1.135,-1.124,-1.1176,-1.1078,-1.1025,-1.0964,-1.0946,-1.0903,-1.0776,-1.0701,-1.0595,-1.0559,-1.054,-1.0406,-1.0419,-1.0432,-1.0469,-1.0376,-1.0329,-1.031,-1.0545,-1.0546,-1.0546,-1.0547,0,0,-1.1386,-1.1259,-1.1235,-1.1184,-1.1083,-1.1009,-1.0911,-1.0809,-1.0756,-1.0676,-1.059,-1.0457,-1.0468,-1.0407,-1.0381,-1.0315,-1.0208,-1.0335,-1.0332,-1.0311,-1.0053,-1.0042,-1.002,-1.0205,-1.0201,-1.0198,-1.006,0,-1.1261,-1.1087,-1.1052,-1.0899,-1.0811,-1.0798,-1.0712,-1.0639,-1.0596,-1.0513,-1.0465,-1.037,-1.0394,-1.0357,-1.0291,-1.0235,-1.0155,-1.0245,-1.0121,-1.0117,-1.0141,-0.9996,-0.9983,-0.9856,-1.0041,-1.0038,-1.0036,0,-1.1091,-1.1009,-1.0848,-1.0759,-1.072,-1.0643,-1.0547,-1.0469,-1.0386,-1.0359,-1.0291,-1.0273,-1.0167,-1.0212,-1.0064,-1.0126,-1.0074,-1.0039,-1.0033,-1.0017,-1.0068,-0.9972,-0.9815,-0.9794,-1.0007,-1.0009,-1.0011,0,-1.1012,-1.0862,-1.0746,-1.0703,-1.0597,-1.0542,-1.0495,-1.0415,-1.0356,-1.0271,-1.0232,-1.0136,-1.0082,-1.0006,-0.9961,-0.9999,-0.9815,-0.9858,-0.9787,-0.9788,-0.9746,-0.9748,-0.9574,-0.9718,-0.9719,-0.9719,-0.9719,0,-1.0873,-1.0774,-1.0709,-1.0637,-1.0526,-1.0486,-1.0376,-1.0329,-1.0258,-1.0175,-1.0159,-1.008,-1.0027,-0.9941,-0.9905,-0.9787,-0.9763,-0.9736,-0.9727,-0.9735,-0.9738,-0.9697,-0.9704,-0.9714,-0.9715,-0.9716,-0.9717,0,-1.0765,-1.0718,-1.059,-1.05,-1.0475,-1.0397,-1.0318,-1.0247,-1.0205,-1.01,-1.0073,-1.0005,-0.9903,-0.9852,-0.9724,-0.97,-0.9565,-0.9563,-0.9593,-0.9588,-0.952,-0.9525,-0.931,-0.9278,-0.9447,-0.9445,-0.9444,0,-1.0677,-1.0601,-1.0504,-1.0449,-1.0401,-1.0311,-1.0251,-1.0209,-1.0147,-1.0047,-0.9987,-0.9885,-0.98,-0.9637,-0.9575,-0.9477,-0.947,-0.9401,-0.9455,-0.9465,-0.9465,-0.9468,-0.9459,-0.939,-0.9389,-0.9388,-0.9386,0,-1.0526,-1.0507,-1.0422,-1.0329,-1.0259,-1.0183,-1.0107,-1.0062,-1.0008,-0.9939,-0.9835,-0.977,-0.9641,-0.9538,-0.9435,-0.9384,-0.9374,-0.9371,-0.9349,-0.9354,-0.9374,-0.9359,-0.9563,-0.9375,-0.9376,-0.9377,-0.9378,-0.9378,-1.0423,-1.0354,-1.0275,-1.0181,-1.0121,-1.0051,-0.9979,-0.9929,-0.9843,-0.9735,-0.9716,-0.9605,-0.9523,-0.9385,-0.9331,-0.9242,-0.9256,-0.9225,-0.9216,-0.9208,-0.9203,-0.9392,-0.9223,-0.9224,-0.9224,-0.9224,-0.9224,0,-1.0268,-1.0217,-1.0131,-1.0027,-0.9953,-0.9955,-0.9872,-0.9808,-0.9712,-0.9638,-0.9555,-0.9435,-0.9336,-0.9267,-0.9166,-0.9108,-0.9101,-0.9082,-0.9084,-0.9072,-0.9198,-0.9225,-0.9089,-0.9089,-0.9089,-0.9089,-0.9089,-0.909,-1.0178,-1.0061,-1.0032,-0.9885,-0.9834,-0.9727,-0.9679,-0.9614,-0.9554,-0.9421,-0.9339,-0.9297,-0.9223,-0.9117,-0.9025,-0.9007,-0.8969,-0.8949,-0.8931,-0.9049,-0.9063,-0.9076,-0.9102,-0.8942,-0.8942,-0.8812,-0.8811,-0.881]}]]